Weather History for KCEZ - January, 2014

Change the Weather History Date:

Monday, January 27, 2014

  Actual Average Record
Temperature  
Mean Temperature 32 °F 29 °F  
Max Temperature 51 °F 42 °F 57 °F (2015)
Min Temperature 13 °F 16 °F 6 °F (2004)
Degree Days  
Heating Degree Days 33 36  
Month to date heating degree days 961 1004  
Since 1 July heating degree days 3640 3662  
Cooling Degree Days 0 0  
Month to date cooling degree days 0 0  
Year to date cooling degree days 0 0  
Moisture  
Dew Point 10 °F    
Average Humidity 49    
Maximum Humidity 80    
Minimum Humidity 18    
Precipitation  
Precipitation 0.00 in 0.04 in 0.39 in (2001)
Month to date precipitation T 0.85  
Year to date precipitation T 0.85  
Sea Level Pressure  
Sea Level Pressure 30.02 in    
Wind  
Wind Speed 8 mph (NNE)    
Max Wind Speed 17 mph    
Max Gust Speed 22 mph    
Visibility 10 miles    
Events      
T = Trace of Precipitation, MM = Missing Value Source: NWS Daily Summary

Daily Weather History Graph

Daily Weather History Graph

Search for Another Location

Airport or City:

Trip Planner

Search our weather history database for the weather conditions in past years. The results will help you decide how hot, cold, wet, or windy it might be!

Date:

Astronomy

Jan. 27, 2014 Rise Set
Actual Time 7:21 AM MST 5:33 PM MST
Civil Twilight 6:53 AM MST 6:01 PM MST
Nautical Twilight 6:22 AM MST 6:32 PM MST
Astronomical Twilight 5:51 AM MST 7:03 PM MST
Moon 4:04 AM MST (1/27) 2:23 PM MST (1/27)
Length of Visible Light 11h 07m
Length of Day
10h 12m
Waning Crescent, 14% of the Moon is Illuminated
Jan 27
Waning Crescent
Jan 30
New
Feb 6
First Quarter
Feb 14
Full
Feb 22
Last Quarter

Hourly Weather History & Observations

Time (MST) Temp. Windchill Dew Point Humidity Pressure Visibility Wind Dir Wind Speed Gust Speed Precip Events Conditions
12:53 AM 19.0 °F 10.0 °F 10.0 °F 68% 30.02 in 10.0 mi East 6.9 mph - N/A   Clear
1:53 AM 16.0 °F 4.4 °F 9.0 °F 74% 30.02 in 10.0 mi ENE 9.2 mph - N/A   Clear
2:53 AM 17.1 °F 7.6 °F 10.9 °F 77% 30.01 in 10.0 mi ENE 6.9 mph - N/A   Clear
3:53 AM 16.0 °F 7.4 °F 10.0 °F 77% 30.02 in 10.0 mi East 5.8 mph - N/A   Clear
4:53 AM 14.0 °F 3.9 °F 9.0 °F 80% 30.04 in 10.0 mi ENE 6.9 mph - N/A   Clear
5:53 AM 16.0 °F 4.4 °F 10.0 °F 77% 30.04 in 10.0 mi ENE 9.2 mph - N/A   Clear
6:53 AM 16.0 °F 10.4 °F 10.0 °F 77% 30.07 in 10.0 mi ENE 3.5 mph - N/A   Clear
7:53 AM 14.0 °F - 8.1 °F 77% 30.15 in 10.0 mi Calm Calm - N/A   Clear
8:53 AM 28.9 °F 23.9 °F 15.1 °F 56% 30.09 in 10.0 mi NE 4.6 mph - N/A   Clear
9:53 AM 37.9 °F 35.5 °F 16.0 °F 41% 30.08 in 10.0 mi East 3.5 mph - N/A   Clear
10:53 AM 45.0 °F - 10.9 °F 25% 30.05 in 10.0 mi Calm Calm - N/A   Clear
11:53 AM 48.9 °F - 12.0 °F 23% 30.01 in 10.0 mi West 5.8 mph - N/A   Clear
12:53 PM 50.0 °F - 9.0 °F 19% 29.96 in 10.0 mi West 10.4 mph - N/A   Clear
1:53 PM 51.1 °F - 12.0 °F 21% 29.93 in 10.0 mi West 15.0 mph - N/A   Clear
2:53 PM 50.0 °F - 10.0 °F 20% 29.93 in 10.0 mi WNW 13.8 mph - N/A   Clear
3:53 PM 48.9 °F - 10.0 °F 21% 29.93 in 10.0 mi WNW 15.0 mph - N/A   Clear
4:53 PM 45.0 °F 39.3 °F 10.9 °F 25% 29.96 in 10.0 mi West 11.5 mph - N/A   Clear
5:53 PM 41.0 °F 35.2 °F 12.0 °F 31% 29.97 in 10.0 mi West 9.2 mph - N/A   Clear
6:53 PM 30.0 °F - 10.0 °F 43% 30.04 in 10.0 mi Calm Calm - N/A   Clear
7:53 PM 25.0 °F 14.8 °F 9.0 °F 51% 30.08 in 10.0 mi ENE 10.4 mph - N/A   Clear
8:53 PM 21.9 °F 11.7 °F 8.1 °F 55% 30.04 in 10.0 mi ENE 9.2 mph - N/A   Clear
9:53 PM 21.0 °F 9.9 °F 8.1 °F 57% 30.02 in 10.0 mi ENE 10.4 mph - N/A   Clear
10:53 PM 21.0 °F 10.6 °F 10.0 °F 63% 30.02 in 10.0 mi ENE 9.2 mph - N/A   Clear
11:53 PM 21.0 °F 16.2 °F 9.0 °F 60% 30.01 in 10.0 mi NW 3.5 mph - N/A   Clear